Regional Weather Roundup
Issued by NWS State College, PA

Home | Current Version | Previous Version | Text Only | Print | Product List | Glossary Off
Versions: 1 2 3 4 5 6 7 8 9 10 11 12 13 14 15 16 17 18 19 20 21 22 23 24 25 26 27 28 29 30 31 32 33 34 35 36 37 38 39 40 41 42 43 44 45 46 47 48 49 50

000
ASUS41 KCTP 272110
RWRCTP

REGIONAL WEATHER ROUNDUP
NATIONAL WEATHER SERVICE STATE COLLEGE PA
500 PM EDT SAT AUG 27 2016

Note: "fair" indicates few or no clouds below 12,000 feet with no
significant weather and/or obstructions to visibility.

* = STATION THAT DOES NOT REPORT PRECIPITATION /E.G. RAIN...SNOW...ETC/
    THUNDER OR FOG.

PAZ002>004-007>009-013>016-020>023-029>032-272200-
WESTERN PENNSYLVANIA

CITY           SKY/WX    TMP DP  RH WIND       PRES   REMARKS
ERIE           SUNNY     86  68  54 VRB3      30.13R
MEADVILLE      SUNNY     83  63  50 VRB3      30.17S
FRANKLIN*        N/A     82  64  54 SE5       30.18S
NEW CASTLE     FAIR      90  66  45 VRB3      30.14S
BEAVER COUNTY  NOT AVBL
BUTLER*        NOT AVBL
PITTSBURGH INT PTSUNNY   88  64  44 SE6       30.13F
PITTSBURGH     SUNNY     88  66  48 SE5       30.13F
INDIANA*       SUNNY     88  66  48 VRB6      30.19S
LATROBE        SUNNY     86  68  54 S6        30.15F
WASHINGTON CO* SUNNY     88  70  55 S5        30.14F
$$

PAZ004>006-010>012-017>019-024>028-033>037-041-042-045-046-049>053-272200-
CENTRAL PENNSYLVANIA

CITY           SKY/WX    TMP DP  RH WIND       PRES   REMARKS
BRADFORD       MOSUNNY   80  63  55 S9        30.22S
DUBOIS         SUNNY     83  61  47 VRB7      30.19S
CLEARFIELD     SUNNY     86  64  47 MISG      30.19F
JOHNSTOWN      SUNNY     83  63  50 S8        30.22S
ALTOONA        MOSUNNY   85  65  51 SE8       30.19S
STATE COLLEGE  MOSUNNY   82  66  57 S6        30.19F
WILLIAMSPORT   CLOUDY    85  64  49 E7        30.15F
SELINSGROVE    PTSUNNY   86  67  52 SE5       30.16F
FT INDIANTOWN  MOSUNNY   87  64  44 VRB1      30.17S
CAPITAL CITY   CLOUDY    89  64  43 E7        30.15F
HARRISBURG     PTSUNNY   88  67  49 SE3       30.14F
YORK           SUNNY     88  66  48 VRB3      30.16S
$$

PAZ038>040-043-044-047-048-054-055-060>062-067>071-272200-
EASTERN PENNSYLVANIA

CITY           SKY/WX    TMP DP  RH WIND       PRES   REMARKS
SCRANTON       PTSUNNY   84  64  50 SW7       30.18S
MOUNT POCONO   SUNNY     78  60  53 S7        30.25S
ALLENTOWN      CLOUDY    89  59  36 S6        30.16F
QUAKERTOWN*    CLOUDY    88  57  35 CALM      30.18S
READING        CLOUDY    88  61  40 N3        30.15S
LANCASTER      CLOUDY    88  67  49 E6        30.16S
COATESVILLE    CLOUDY    86  63  45 CALM      30.19S
POTTSTOWN      CLOUDY    89  59  36 SW6       30.17S
BLUE BELL      CLOUDY    86  59  39 NE3       30.15F
DOYLESTOWN     NOT AVBL
WILLOW GROVE   NOT AVBL
NORTH PHILA    CLOUDY    90  60  36 E10       30.17S
PHILADELPHIA   PTSUNNY   91  57  31 E8        30.14F
$$




USA.gov is the U.S. government's official web portal to all federal, state and local government web resources and services.